Regional Weather Roundup
Issued by NWS

Home | Current Version | Previous Version | Text Only | Print | Product List | Glossary Off
Versions: 1 2 3 4 5 6 7 8 9 10 11 12 13 14 15 16 17 18 19 20 21 22 23 24 25 26 27 28 29 30 31 32 33 34 35 36 37 38 39 40 41 42 43 44 45 46 47 48 49 50

000
ASUS43 KLOT 050600
RWRIL

ILLINOIS REGIONAL WEATHER ROUNDUP
NATIONAL WEATHER SERVICE CHICAGO/ROMEOVILLE IL
100 AM CDT WED AUG 05 2015

NOTE: "FAIR" INDICATES FEW OR NO CLOUDS BELOW 12,000 FEET WITH NO
SIGNIFICANT WEATHER AND/OR OBSTRUCTIONS TO VISIBILITY.

* THESE STATIONS ARE NOT UNDER NWS QUALITY CONTROL. THEY ALSO MAY NOT
  REPORT WEATHER SUCH AS PRECIPITATION OR FOG.

ILZ001-002-007-009-015-016-024-050700-
NORTHWEST ILLINOIS

CITY           SKY/WX    TMP DP  RH WIND       PRES   REMARKS
MOLINE         PTCLDY    64  61  90 CALM      30.03S
6HR MIN TEMP:  64; 6HR MAX TEMP:  77;

STERLING*      CLEAR     61  57  88 CALM      30.01F
$$

ILZ003-004-008-010-011-017-018-050700-
NORTH CENTRAL ILLINOIS

CITY           SKY/WX    TMP DP  RH WIND       PRES   REMARKS
ROCKFORD       PTCLDY    62  57  83 CALM      30.05S
6HR MIN TEMP:  61; 6HR MAX TEMP:  76;

$$

ILZ005-006-012>014-019>023-050700-
NORTHEAST ILLINOIS

CITY           SKY/WX    TMP DP  RH WIND       PRES   REMARKS
CHICAGO-OHARE  PTCLDY    67  58  72 SW3       30.03F
6HR MIN TEMP:  65; 6HR MAX TEMP:  77;

CHICAGO-MIDWAY PTCLDY    73  60  63 SE3       30.03S
6HR MIN TEMP:  72; 6HR MAX TEMP:  79;

AURORA         CLEAR     59  55  87 CALM      30.05S
6HR MIN TEMP:  59; 6HR MAX TEMP:  75;

WAUKEGAN       CLEAR     63  59  87 CALM      30.03S
6HR MIN TEMP:  61; 6HR MAX TEMP:  71;

DUPAGE AIRPORT CLEAR     61  56  83 CALM      30.04S
6HR MIN TEMP:  61; 6HR MAX TEMP:  75;

WHEELING       CLEAR     64  58  80 CALM      30.05S
6HR MIN TEMP:  63; 6HR MAX TEMP:  76;

NORTHERLY ISL    N/A     70  59  68 S5          N/A
$$

LMZ740>746-050700-
SOUTHERN LAKE MICHIGAN

STATION/POSITION SKY/WX   TEMP    WIND        PRES    VSBY  WAVE
                          AIR SEA DIR/SP/G                  HT/PER
                          (F)     (DEG/KT/KT) (MB)    (MI)  (FT/S)
HARRISON CRIB              71     160/  6/  8   N/A
BURNHAM HARBOR             70     130/  2/  5   N/A
CALUMET HARBOR             72     110/  4/  5   N/A
BURNS HARBOR               70     170/  2/  5 1017.6S
MICHIGAN CITY              69     130/  5/  6   N/A
MICHIGAN CITY 6N           72 74  180/  4/  6   N/A           1/ 3
ST. JOSEPH                 71 74  200/  4/  4   N/A           1
$$

ILZ025>027-034>036-040-047-049-050-058-095>099-050700-
WEST-CENTRAL ILLINOIS

CITY           SKY/WX    TMP DP  RH WIND       PRES   REMARKS
QUINCY         MOCLDY    71  64  78 E5        30.02F
MACOMB*        MOCLDY    65  64  96 CALM      30.06S
$$

ILZ028>032-037-038-041>044-048-051>054-059>061-050700-
CENTRAL ILLINOIS

CITY           SKY/WX    TMP DP  RH WIND       PRES   REMARKS
DECATUR        CLOUDY    69  64  84 CALM      30.05R
PEORIA         PTCLDY    68  63  84 NE3       30.04F
6HR MIN TEMP:  68; 6HR MAX TEMP:  79; 6HR PCP: TRACE;

SPRINGFIELD    MOCLDY    68  63  84 CALM      30.04F
6HR MIN TEMP:  66; 6HR MAX TEMP:  78;

TAYLORVILLE    NOT AVBL
$$

ILZ033-039-045-046-055>057-062-063-050700-
EAST-CENTRAL ILLINOIS

CITY           SKY/WX    TMP DP  RH WIND       PRES   REMARKS
CHAMPAIGN      MOCLDY    70  60  70 N5        30.05S
MATTOON        CLOUDY    66  63  90 CALM      30.04R
$$

ILZ079-100>102-050700-
SOUTHWEST ILLINOIS

CITY           SKY/WX    TMP DP  RH WIND       PRES   REMARKS
BELLEVILLE     MOCLDY    74  73  99 NE2       29.99F
CAHOKIA*       MOCLDY    76  70  82 E3        30.00F
$$

ILZ064>066-069>071-074>076-080>082-084>086-088>090-092>094-050700-
SOUTH-CENTRAL ILLINOIS

CITY           SKY/WX    TMP DP  RH WIND       PRES   REMARKS
CARBONDALE     MOCLDY    73  69  87 NE3       30.00R
6HR MIN TEMP:  73; 6HR MAX TEMP:  79;

MT. VERNON     PTCLDY    70  64  83 CALM      30.02F
SALEM*         PTCLDY    72  69  90 CALM      30.03R
$$

ILZ067-068-072-073-078-083-087-091-050700-
SOUTHEAST ILLINOIS

CITY           SKY/WX    TMP DP  RH WIND       PRES   REMARKS
LAWRENCEVILLE  MOCLDY    71  68  90 CALM      30.03S
HARRISBURG*    MOCLDY    71  71  99 CALM      30.02S
$$

ABBREVIATIONS USED IN REMARKS
   TC - TEMPERATURE IN CELSIUS
  WCI - WIND CHILL INDEX
   HX - HEAT INDEX
  VSB - VISIBILITY
$$



USA.gov is the U.S. government's official web portal to all federal, state and local government web resources and services.